Location: Unspecified
(0.0000°N, 0.0000°E)
Time: 11:03:41
(UTC+00:00)

ISS - Pass Details

Date: 15 March 2019
Orbit: 408 x 411 km, 51.6° (Epoch: 24 March)

Event Time Altitude Azimuth Distance (km) Brightness Sun altitude
Rises 19:27:29 0° 217° (SW) 2,332 0.6 -19.6°
Reaches altitude 10° 19:29:34 10° 219° (SW) 1,468 -0.5 -20.1°
Enters shadow 19:32:42 75° 267° (W) 423 -3.7 -20.9°
